TimeMDT,TemperatureF,Dew PointF,Humidity,Sea Level PressureIn,VisibilityMPH,Wind Direction,Wind SpeedMPH,Gust SpeedMPH,PrecipitationIn,Events,Conditions,WindDirDegrees,DateUTC
12:50 AM,75.2,73.4,94,29.84,8.0,NE,6.9,-,N/A,,Mostly Cloudy,50,2012-10-15 06:50:00
1:44 AM,75.2,73.4,94,29.82,8.0,North,5.8,-,N/A,,Overcast,10,2012-10-15 07:44:00
2:52 AM,75.2,73.4,94,29.81,8.0,North,5.8,-,N/A,,Overcast,10,2012-10-15 08:52:00
3:50 AM,75.2,73.4,94,29.81,8.0,NNE,8.1,-,N/A,,Overcast,20,2012-10-15 09:50:00
4:43 AM,75.2,73.4,94,29.80,8.0,North,6.9,-,N/A,,Overcast,360,2012-10-15 10:43:00
5:46 AM,75.2,73.4,94,29.81,8.0,North,5.8,-,N/A,,Mostly Cloudy,360,2012-10-15 11:46:00
6:48 AM,75.2,73.4,94,29.81,5.0,North,8.1,-,N/A,Fog,Mostly Cloudy,10,2012-10-15 12:48:00
7:44 AM,75.2,73.4,94,29.82,6.0,NNE,5.8,-,N/A,,Mostly Cloudy,20,2012-10-15 13:44:00
8:46 AM,77.0,73.4,89,29.83,6.0,NNE,5.8,-,N/A,,Mostly Cloudy,20,2012-10-15 14:46:00
9:45 AM,78.8,73.4,83,29.85,6.0,East,5.8,-,N/A,,Overcast,90,2012-10-15 15:45:00
10:40 AM,80.6,75.2,84,29.86,10.0,East,5.8,-,N/A,,Overcast,100,2012-10-15 16:40:00
11:45 AM,82.4,75.2,79,29.85,10.0,East,5.8,-,N/A,,Overcast,100,2012-10-15 17:45:00
12:41 PM,84.2,75.2,74,29.86,8.0,SSE,5.8,-,N/A,,Overcast,160,2012-10-15 18:41:00
1:42 PM,84.2,73.4,70,29.84,10.0,SSE,8.1,-,N/A,,Overcast,150,2012-10-15 19:42:00
2:40 PM,82.4,73.4,74,29.82,10.0,ESE,6.9,-,N/A,,Overcast,110,2012-10-15 20:40:00
3:46 PM,82.4,73.4,74,29.81,12.0,East,6.9,-,N/A,,Overcast,80,2012-10-15 21:46:00
4:41 PM,78.8,73.4,83,29.78,12.0,NNW,6.9,-,N/A,,Overcast,340,2012-10-15 22:41:00
5:40 PM,80.6,71.6,74,29.79,14.0,NNE,6.9,-,N/A,,Overcast,30,2012-10-15 23:40:00
6:40 PM,77.0,71.6,83,29.79,12.0,NE,5.8,-,N/A,,Overcast,40,2012-10-16 00:40:00
7:43 PM,75.2,71.6,89,29.80,10.0,North,6.9,-,N/A,,Overcast,360,2012-10-16 01:43:00
8:43 PM,75.2,71.6,89,29.82,10.0,NE,6.9,-,N/A,,Overcast,40,2012-10-16 02:43:00
9:43 PM,73.4,71.6,94,29.86,10.0,ESE,6.9,-,N/A,,Overcast,120,2012-10-16 03:43:00
10:41 PM,75.2,71.6,89,29.85,10.0,East,6.9,-,N/A,,Overcast,90,2012-10-16 04:41:00
11:44 PM,73.4,71.6,94,29.88,10.0,NNE,6.9,-,N/A,,Overcast,20,2012-10-16 05:44:00